Wind_Speed
20 21 21 22 23 23 21 20 19 18 18 19 19 18 17 17 17 16 15 14 14 13 12 11 11 10 9 9 8 7 7 7 7 7 6 6 6 6 6 6 6 6 7 7 8 8 9 10 10
22 22 22 23 23 22 20 19 19 19 19 20 19 19 18 18 17 17 16 15 15 14 13 12 12 11 10 10 9 8 8 7 7 7 7 7 7 6 7 7 7 7 8 8 8 9 10 10 11
23 23 24 24 23 21 20 20 20 20 20 20 20 20 19 18 18 17 17 16 16 15 14 13 13 12 11 11 11 10 9 9 9 8 8 8 7 7 7 7 7 8 8 8 9 10 10 10 11
24 25 25 25 23 21 21 21 21 21 21 21 21 21 20 19 18 18 18 17 17 16 15 15 14 13 12 12 12 11 11 10 10 9 9 9 8 8 8 8 8 8 8 9 9 10 11 11 12
26 27 27 25 23 22 22 22 22 22 22 23 22 22 21 20 19 19 19 18 18 17 17 16 16 15 14 14 13 13 12 11 11 11 10 10 9 9 9 9 9 9 9 9 10 11 11 12 12
28 28 28 26 23 23 24 24 23 23 23 24 23 23 22 22 21 21 20 20 19 19 18 18 18 17 16 15 15 14 13 13 12 12 12 11 11 11 10 10 10 10 10 10 11 12 12 12 13
30 30 29 27 26 25 25 25 24 24 24 24 24 24 23 23 23 22 22 21 21 20 20 19 19 18 17 17 16 16 15 14 14 13 13 13 13 12 12 12 11 11 12 12 12 12 13 13 13
33 32 31 29 27 27 27 27 26 25 25 25 25 25 25 24 24 23 23 22 22 21 21 21 20 20 19 18 18 17 16 16 15 15 14 14 14 14 14 13 13 13 13 13 14 14 14 14 14
35 34 32 29 29 28 29 28 28 27 26 26 26 26 26 25 25 25 24 24 24 23 22 22 22 21 20 20 19 18 18 18 17 17 16 16 15 15 15 15 15 15 15 15 15 15 16 16 16
36 36 32 31 30 30 30 30 30 29 28 27 27 27 27 27 27 26 26 25 25 24 24 23 23 22 22 21 20 20 20 19 19 18 17 17 17 17 17 17 17 17 16 16 17 16 17 17 17
37 36 33 33 32 32 32 32 31 31 29 28 28 28 28 28 28 28 28 27 27 26 25 25 24 24 23 23 22 21 21 21 20 19 19 18 18 18 18 18 19 18 18 18 18 18 18 18 18
37 36 35 34 34 34 34 34 33 33 31 30 30 30 29 29 30 30 30 29 28 28 27 27 26 26 25 24 24 23 23 22 22 21 21 20 20 20 20 20 20 20 20 20 20 19 19 20 20
36 36 36 35 36 35 35 35 35 34 33 33 32 31 31 31 31 32 32 31 30 30 29 28 28 27 27 26 25 25 24 24 24 23 23 22 22 22 22 22 22 22 22 22 21 21 21 21 21
35 36 36 36 37 37 36 36 37 35 35 35 34 34 33 33 33 33 33 33 32 31 31 30 30 29 28 28 27 27 26 25 25 25 25 25 24 24 24 24 24 24 24 23 23 23 23 23 23
35 37 37 37 37 38 38 38 36 35 37 37 36 36 36 35 35 35 35 35 34 34 33 32 31 31 30 29 29 28 28 27 26 27 27 26 26 26 26 26 25 25 25 25 25 25 25 24 25
35 37 39 38 38 38 40 39 36 37 39 39 39 38 38 37 37 37 37 36 36 36 35 34 33 32 32 31 31 30 29 29 28 28 28 28 28 28 28 27 27 27 27 27 27 26 26 26 27
36 37 38 39 39 40 41 40 38 40 41 41 41 41 40 39 39 38 39 39 38 37 37 36 35 34 34 33 32 31 31 31 31 30 30 30 30 30 29 29 29 29 29 28 28 28 28 28 28
37 38 38 39 40 41 42 41 40 41 43 43 43 43 42 41 40 40 40 40 40 39 39 38 37 36 36 35 34 33 33 33 33 32 32 32 32 31 31 30 30 30 30 30 30 29 29 29 30
39 39 39 39 40 43 44 43 41 41 43 43 44 44 44 43 42 42 42 42 42 42 41 40 39 39 38 37 36 35 35 35 35 34 34 34 33 33 32 32 32 32 32 31 31 31 31 31 31
38 40 41 41 42 44 45 45 43 42 42 43 44 44 44 43 43 43 44 44 43 43 43 42 42 41 40 39 38 37 37 37 36 35 35 35 35 34 33 33 33 33 33 33 33 33 33 32 33
37 39 41 42 42 43 45 46 44 43 43 43 44 44 44 44 44 44 44 45 45 45 45 44 43 43 42 42 41 40 39 38 37 37 37 37 37 36 36 35 35 34 34 34 34 34 34 34 34
36 37 39 41 43 44 44 46 43 43 43 43 42 42 43 43 44 44 45 46 46 46 46 46 45 44 44 43 43 42 41 40 39 39 39 39 39 38 38 37 37 36 36 35 35 35 36 36 36
36 36 38 40 42 43 42 45 43 43 42 42 42 41 41 42 43 44 45 46 46 46 47 47 46 46 45 45 44 43 42 42 42 42 41 41 40 40 40 39 39 38 38 38 38 37 38 38 38
36 36 38 39 41 43 40 43 42 41 41 41 42 42 41 42 43 43 45 45 46 46 47 47 47 47 47 46 46 45 44 44 44 44 43 43 42 42 42 41 41 40 40 40 40 39 39 39 39
35 36 38 40 41 43 40 41 40 37 39 40 41 42 43 43 43 43 44 45 45 46 46 47 48 48 48 47 47 46 46 46 46 46 45 45 44 44 43 43 43 42 42 42 42 41 41 41 41
35 35 37 40 42 42 41 42 39 38 38 38 40 41 42 43 44 45 45 45 45 47 47 48 49 49 49 48 48 47 47 47 47 48 48 47 46 45 45 45 45 44 43 43 43 43 42 43 42
36 36 36 38 41 42 42 42 39 38 38 38 38 40 41 43 44 45 45 45 45 46 47 48 49 49 50 49 49 49 48 49 48 48 48 48 48 47 47 47 46 45 45 44 44 44 43 43 43
35 36 37 39 41 43 42 40 38 37 37 37 37 38 39 41 42 44 45 46 46 47 48 48 49 49 50 50 50 50 50 50 50 49 48 49 49 49 49 49 48 47 47 46 46 45 44 45 45
35 37 38 39 41 43 43 40 37 36 37 36 37 38 39 40 41 43 44 45 46 47 48 50 50 50 51 51 51 51 52 51 51 51 50 50 51 51 51 51 50 50 49 48 47 47 47 47 46
35 36 37 39 40 42 45 43 38 37 37 37 37 38 40 41 41 42 43 45 46 47 48 49 50 50 51 51 51 51 51 53 52 52 52 52 52 52 52 52 51 51 50 50 49 48 48 48 48
Wind_Direction
238 239 239 237 237 239 240 241 241 241 241 241 242 243 244 245 245 245 245 244 246 247 248 247 245 244 241 240 239 240 244 247 248 248 247 245 248 254 258 266 275 282 289 295 300 303 304 306 308
237 238 238 237 238 239 240 240 239 240 241 241 242 242 242 244 244 246 245 245 245 245 246 245 243 241 242 241 240 239 242 247 248 249 250 250 253 258 262 268 275 282 288 295 299 302 303 305 307
236 237 238 238 238 239 240 238 238 240 241 241 242 242 241 242 243 244 245 245 244 244 243 242 240 239 241 242 242 241 244 247 250 251 250 251 254 260 267 270 275 281 286 292 297 300 302 304 306
236 237 238 239 239 240 240 240 239 240 242 242 242 241 240 240 241 242 243 243 242 242 242 241 239 239 240 242 244 245 247 248 250 250 249 250 253 261 268 271 276 281 287 293 298 301 302 302 305
237 237 238 239 239 239 241 241 241 242 242 243 243 242 240 240 240 241 241 241 241 241 241 241 239 239 242 243 244 246 248 248 248 248 250 251 254 260 266 271 275 280 286 292 296 300 301 302 305
238 238 239 240 240 240 240 241 241 243 244 244 243 241 240 240 240 240 240 241 241 242 242 242 240 241 244 246 245 246 246 245 245 248 252 254 257 261 264 268 273 278 284 290 294 298 300 303 305
238 239 240 240 240 240 241 241 242 243 243 244 244 242 240 240 239 239 240 240 242 242 242 242 242 242 244 245 245 246 246 246 247 249 252 254 258 261 262 266 272 277 282 287 292 295 298 301 303
238 239 239 239 241 242 242 242 241 242 242 243 243 242 241 240 240 240 240 241 242 243 243 243 243 242 243 244 246 246 247 247 248 250 252 254 258 259 261 265 270 276 280 284 288 290 294 297 299
238 239 239 240 241 242 242 242 241 241 242 243 243 243 242 241 241 240 240 242 243 243 244 244 244 244 244 244 245 246 247 248 250 252 254 256 258 259 261 264 269 274 278 282 285 287 290 293 295
239 240 240 240 241 242 242 241 240 241 241 242 242 242 242 241 241 241 240 242 242 243 243 244 244 244 245 244 245 246 248 250 251 253 254 256 259 260 261 265 268 272 276 280 283 285 288 290 293
241 241 240 240 242 242 242 241 241 241 240 241 242 242 242 242 241 241 241 241 241 242 243 243 243 244 245 245 245 246 248 250 251 253 255 257 259 261 262 264 268 272 275 278 281 283 285 288 290
243 242 241 240 242 243 244 243 242 242 241 241 242 241 242 242 241 241 241 241 242 243 244 244 244 245 245 245 244 246 248 251 253 254 255 257 259 260 262 264 267 271 275 278 280 282 284 286 289
244 242 242 242 243 244 244 244 243 243 242 242 242 241 241 242 242 241 242 242 242 243 244 244 244 244 244 244 244 246 248 251 253 254 255 257 259 260 262 264 267 271 275 278 280 281 283 285 287
245 244 243 243 244 245 245 245 244 243 243 244 243 241 240 241 242 243 243 242 243 243 243 243 244 244 244 244 245 246 249 252 254 255 255 257 259 261 262 264 267 270 274 276 278 279 281 284 286
245 245 244 244 245 246 247 246 245 244 244 244 244 243 241 241 243 243 243 243 243 243 243 243 243 244 244 245 246 247 250 253 255 256 256 257 260 262 263 265 267 270 273 275 277 278 281 283 285
246 246 245 246 247 247 248 247 245 245 244 244 244 244 242 242 243 243 244 244 244 243 243 242 242 244 245 246 248 249 251 253 255 257 257 258 260 261 262 264 267 269 272 274 276 277 280 282 285
248 248 247 248 249 249 250 249 246 246 245 244 244 244 243 242 241 243 244 245 244 243 242 242 243 244 245 247 249 250 251 253 255 257 258 259 260 261 262 263 266 269 271 273 275 277 279 281 284
248 248 249 250 251 251 251 249 247 248 247 245 245 245 245 243 241 243 244 244 244 243 243 243 243 244 246 248 250 251 252 253 254 256 257 258 260 261 262 264 266 269 270 272 274 276 278 281 283
250 252 253 253 253 253 252 250 247 248 249 248 247 247 247 245 243 244 244 244 244 244 243 243 244 245 246 248 250 251 251 252 253 255 256 257 259 261 263 264 267 268 269 271 274 275 277 279 282
254 255 255 256 256 255 254 252 249 248 250 250 249 249 248 247 245 244 245 245 244 244 243 244 245 246 247 249 251 252 251 252 253 254 257 258 260 261 264 265 267 268 269 271 273 275 276 278 281
257 258 258 259 257 258 258 254 250 250 250 250 250 250 250 249 247 246 246 245 244 243 243 244 245 246 248 250 251 252 253 253 254 255 256 258 260 261 263 265 266 268 269 271 272 274 276 277 280
260 259 259 261 261 261 260 258 250 249 249 251 251 251 250 250 248 247 247 245 244 243 242 243 245 247 248 250 251 252 253 253 254 254 256 258 260 262 263 264 265 267 269 270 271 273 275 278 280
262 259 259 261 263 262 261 261 255 250 250 251 251 252 252 251 249 247 246 245 244 243 243 243 245 247 248 249 250 252 252 252 253 255 256 258 260 262 262 263 264 266 268 269 271 272 274 277 279
262 261 261 262 263 262 262 264 259 253 253 252 251 253 254 252 249 247 246 245 244 243 243 244 244 246 247 248 250 251 252 252 253 255 256 258 260 261 262 262 264 266 267 268 270 271 274 276 278
262 262 264 264 264 264 264 264 260 256 255 255 254 254 254 253 250 249 248 246 245 244 243 244 245 246 247 249 250 251 252 252 254 255 256 257 259 261 262 262 263 265 266 267 269 271 273 275 276
261 260 263 267 268 267 264 263 261 259 257 256 256 257 256 254 252 250 249 248 246 245 244 245 246 246 248 249 250 251 251 252 253 254 256 257 258 260 260 261 262 264 265 266 268 270 272 274 275
261 259 261 267 269 270 266 263 262 262 261 259 258 258 257 255 253 251 250 248 247 246 246 246 246 247 248 249 250 251 251 252 253 254 255 257 259 259 260 261 262 263 264 266 268 270 272 273 275
262 262 262 263 268 271 270 268 267 265 264 262 260 259 257 256 255 253 252 251 249 248 247 247 247 248 249 249 250 251 252 252 253 253 255 256 258 258 260 261 261 262 264 266 268 269 271 272 274
264 262 263 264 266 268 271 269 268 269 267 266 263 261 259 258 256 254 252 251 250 250 250 249 249 249 249 249 249 250 251 252 253 254 254 255 257 258 259 261 261 262 264 266 267 269 271 272 274
267 266 265 266 266 267 268 268 269 270 270 269 267 263 261 260 258 257 255 252 251 251 251 251 251 250 250 250 250 250 251 252 253 254 255 255 256 258 259 261 262 264 265 266 268 269 270 272 273
Height
5846 5847 5848 5849 5851 5852 5854 5856 5857 5859 5859 5860 5861 5862 5863 5864 5865 5868 5866 5866 5866 5866 5867 5867 5867 5867 5867 5867 5867 5867 5868 5868 5867 5867 5867 5867 5866 5866 5866 5865 5864 5864 5863 5862 5861 5860 5859 5858 5857
5842 5843 5845 5845 5846 5848 5851 5853 5854 5855 5855 5856 5857 5858 5859 5860 5861 5862 5862 5863 5863 5864 5864 5864 5865 5865 5865 5865 5865 5866 5866 5866 5866 5866 5865 5865 5865 5864 5864 5863 5863 5862 5861 5860 5859 5858 5857 5856 5855
5837 5838 5840 5841 5842 5845 5848 5849 5850 5851 5851 5852 5853 5854 5855 5857 5858 5858 5859 5859 5860 5861 5861 5862 5862 5863 5863 5863 5863 5864 5864 5864 5864 5863 5863 5863 5863 5862 5862 5861 5861 5860 5859 5858 5857 5856 5855 5854 5853
5832 5834 5835 5837 5838 5842 5843 5845 5846 5846 5847 5848 5849 5850 5852 5853 5854 5855 5855 5856 5857 5857 5858 5859 5859 5860 5860 5860 5861 5861 5861 5861 5861 5861 5861 5861 5861 5860 5860 5859 5858 5858 5857 5856 5855 5854 5853 5851 5850
5826 5828 5830 5832 5835 5837 5839 5840 5841 5842 5843 5844 5845 5846 5848 5849 5850 5850 5851 5852 5853 5854 5855 5856 5856 5857 5857 5858 5858 5858 5858 5859 5859 5859 5859 5858 5858 5858 5857 5857 5856 5855 5854 5854 5853 5851 5850 5849 5847
5821 5822 5825 5827 5830 5833 5834 5835 5836 5837 5838 5839 5840 5841 5843 5844 5845 5846 5847 5848 5849 5850 5851 5852 5853 5853 5854 5854 5855 5855 5855 5855 5856 5856 5856 5855 5855 5855 5855 5854 5854 5853 5852 5851 5850 5849 5847 5846 5845
5815 5816 5818 5822 5825 5827 5829 5829 5831 5832 5833 5834 5835 5837 5839 5839 5840 5841 5842 5843 5845 5846 5847 5848 5849 5849 5850 5851 5851 5852 5852 5852 5852 5852 5852 5852 5852 5852 5852 5851 5851 5850 5849 5848 5847 5846 5844 5843 5842
5807 5810 5812 5816 5819 5822 5823 5824 5825 5826 5828 5829 5830 5831 5833 5835 5835 5836 5837 5839 5840 5841 5842 5843 5844 5845 5846 5847 5847 5848 5848 5849 5849 5849 5849 5849 5849 5849 5848 5848 5848 5847 5846 5845 5844 5843 5841 5840 5839
5799 5802 5805 5810 5813 5815 5816 5817 5819 5820 5822 5823 5824 5826 5828 5829 5830 5831 5832 5834 5835 5836 5838 5839 5840 5841 5842 5842 5843 5844 5844 5845 5845 5845 5845 5845 5845 5845 5845 5845 5844 5843 5842 5841 5840 5839 5838 5837 5835
5790 5794 5800 5804 5806 5807 5809 5810 5812 5814 5815 5817 5818 5819 5821 5822 5824 5826 5827 5828 5829 5831 5832 5834 5835 5836 5837 5838 5839 5839 5840 5841 5841 5841 5841 5841 5841 5841 5841 5841 5840 5839 5839 5837 5836 5835 5834 5833 5831
5783 5788 5793 5795 5797 5799 5800 5803 5804 5806 5809 5811 5812 5813 5814 5816 5817 5819 5820 5822 5823 5825 5827 5828 5829 5831 5832 5833 5834 5835 5836 5836 5837 5837 5837 5837 5837 5837 5837 5836 5836 5835 5834 5833 5832 5831 5830 5829 5827
5776 5781 5784 5787 5788 5790 5792 5795 5797 5799 5802 5803 5804 5805 5807 5809 5810 5812 5813 5815 5817 5819 5820 5822 5823 5825 5826 5828 5829 5830 5831 5831 5832 5832 5832 5832 5832 5832 5832 5832 5831 5831 5830 5829 5828 5827 5825 5824 5823
5768 5772 5775 5778 5779 5781 5783 5785 5788 5791 5793 5794 5796 5798 5800 5801 5803 5804 5806 5808 5809 5812 5814 5816 5817 5819 5820 5822 5823 5824 5825 5826 5826 5827 5827 5827 5827 5827 5827 5827 5826 5826 5825 5824 5823 5822 5821 5819 5818
5761 5763 5766 5769 5771 5773 5774 5777 5779 5783 5784 5786 5787 5790 5791 5793 5795 5796 5798 5800 5802 5804 5806 5808 5810 5812 5814 5816 5817 5818 5819 5820 5821 5821 5822 5822 5822 5822 5822 5821 5821 5820 5820 5819 5818 5817 5816 5814 5813
5751 5754 5757 5760 5762 5764 5765 5767 5771 5775 5775 5777 5779 5781 5783 5785 5786 5788 5790 5792 5794 5796 5798 5801 5803 5805 5807 5809 5810 5812 5813 5814 5815 5815 5816 5816 5816 5816 5816 5816 5815 5815 5814 5813 5813 5812 5810 5809 5808
5742 5745 5748 5752 5753 5754 5756 5758 5764 5764 5765 5767 5769 5772 5774 5776 5778 5780 5782 5784 5786 5788 5791 5793 5795 5798 5800 5802 5803 5805 5806 5807 5808 5809 5809 5809 5809 5810 5809 5809 5809 5809 5808 5807 5807 5806 5805 5803 5802
5733 5736 5739 5742 5744 5744 5744 5748 5753 5754 5755 5757 5759 5762 5764 5767 5769 5772 5773 5775 5777 5780 5783 5785 5788 5790 5793 5794 5796 5798 5799 5800 5801 5802 5802 5803 5803 5803 5803 5803 5803 5802 5802 5801 5800 5799 5798 5797 5795
5726 5727 5729 5732 5734 5734 5734 5738 5742 5743 5744 5746 5749 5751 5754 5757 5761 5763 5764 5766 5769 5771 5774 5777 5780 5782 5784 5786 5788 5790 5791 5792 5793 5794 5795 5795 5796 5796 5796 5796 5796 5795 5795 5794 5793 5792 5791 5790 5789
5718 5718 5720 5723 5724 5723 5725 5727 5731 5732 5733 5736 5739 5741 5744 5748 5751 5753 5755 5757 5760 5762 5765 5769 5771 5774 5776 5778 5780 5782 5783 5784 5785 5786 5787 5787 5788 5788 5789 5789 5788 5788 5787 5787 5786 5785 5784 5783 5781
5708 5709 5711 5713 5714 5713 5714 5717 5721 5723 5725 5727 5729 5731 5734 5737 5740 5743 5745 5747 5750 5753 5756 5759 5762 5765 5767 5770 5771 5773 5774 5775 5777 5778 5779 5779 5780 5780 5781 5781 5781 5780 5780 5779 5779 5778 5777 5775 5774
5700 5701 5702 5703 5704 5704 5704 5706 5711 5714 5715 5717 5719 5721 5724 5727 5730 5732 5734 5736 5739 5743 5746 5749 5753 5755 5758 5760 5761 5764 5765 5767 5768 5770 5770 5771 5771 5772 5772 5772 5772 5772 5772 5771 5771 5770 5769 5768 5766
5692 5694 5693 5694 5694 5694 5695 5694 5702 5704 5706 5708 5711 5712 5714 5717 5719 5721 5723 5726 5729 5732 5736 5739 5742 5745 5748 5750 5752 5754 5756 5758 5760 5760 5761 5762 5762 5763 5763 5763 5763 5763 5763 5763 5762 5761 5760 5759 5758
5684 5684 5685 5684 5684 5684 5686 5684 5691 5695 5697 5700 5702 5703 5704 5706 5707 5709 5712 5715 5718 5721 5725 5728 5732 5735 5738 5740 5742 5744 5746 5748 5749 5750 5752 5752 5753 5753 5754 5754 5754 5754 5754 5754 5753 5752 5751 5750 5749
5675 5676 5676 5675 5674 5675 5678 5676 5679 5685 5688 5690 5692 5693 5693 5695 5696 5698 5701 5704 5707 5710 5714 5717 5720 5724 5727 5730 5732 5735 5737 5738 5739 5740 5742 5742 5743 5744 5744 5744 5744 5744 5744 5744 5744 5743 5742 5741 5740
5668 5668 5666 5665 5664 5665 5668 5666 5671 5676 5677 5679 5681 5682 5683 5684 5686 5688 5690 5693 5696 5699 5703 5706 5709 5713 5716 5718 5721 5724 5726 5727 5729 5730 5731 5732 5733 5734 5734 5734 5734 5734 5734 5734 5733 5733 5732 5731 5730
5659 5659 5659 5657 5656 5656 5656 5656 5663 5665 5666 5668 5670 5671 5671 5672 5675 5677 5680 5682 5685 5688 5691 5695 5698 5701 5704 5707 5710 5712 5714 5715 5718 5719 5720 5721 5722 5723 5723 5723 5723 5723 5723 5723 5723 5722 5722 5721 5720
5650 5650 5650 5648 5645 5645 5645 5649 5653 5655 5656 5658 5659 5659 5660 5661 5663 5666 5668 5671 5674 5677 5680 5683 5686 5689 5692 5695 5698 5700 5702 5704 5706 5707 5708 5709 5711 5711 5711 5712 5712 5712 5712 5712 5712 5712 5711 5710 5709
5642 5641 5641 5639 5636 5635 5636 5639 5643 5644 5645 5647 5648 5648 5649 5650 5652 5654 5657 5659 5662 5665 5668 5670 5673 5677 5680 5682 5685 5687 5689 5691 5693 5694 5696 5698 5699 5699 5700 5700 5701 5701 5701 5701 5701 5701 5700 5699 5698
5633 5633 5631 5630 5629 5627 5626 5632 5634 5634 5634 5636 5636 5636 5637 5638 5640 5642 5645 5648 5650 5653 5656 5658 5661 5663 5666 5669 5671 5674 5676 5678 5680 5681 5683 5685 5686 5687 5688 5689 5689 5689 5690 5690 5690 5690 5689 5688 5687
5623 5623 5622 5621 5620 5618 5616 5622 5624 5624 5623 5624 5624 5624 5625 5626 5628 5630 5633 5635 5638 5640 5643 5645 5648 5650 5652 5655 5657 5660 5662 5664 5666 5668 5670 5671 5673 5674 5675 5676 5677 5677 5678 5678 5678 5678 5677 5676 5675